Regional Weather Roundup
Issued by NWS Pendleton, OR

Home | Current Version | Previous Version | Text Only | Print | Product List | Glossary On
Versions: 1 2 3 4 5 6 7 8 9 10 11 12 13 14 15 16 17 18 19 20 21 22 23 24 25 26 27 28 29 30 31 32 33 34 35 36 37 38 39 40 41 42 43 44 45 46 47 48 49 50
000
ASUS46 KPDT 282010
RWRPDT
PENDLETON REGIONAL WEATHER ROUNDUP
NATIONAL WEATHER SERVICE PENDLETON OREGON
100 PM PDT FRI JUL 28 2017

NOTE: FAIR INDICATES FEW OR NO CLOUDS BELOW 12,000 FEET WITH NO
SIGNIFICANT WEATHER AND/OR OBSTRUCTIONS TO VISIBILITY.

# INDICATES UNOFFICIAL STATION AND DATA

WAZ520-282110-
EAST SLOPES OF WASHINGTON CASCADES

CITY            SKY/WX      TMP DP  RH  WIND    PRES   REMARKS
#BULLFROG       N/A         79  42  27  SW5     N/A
#CLE ELUM HS    N/A         79  38  23  W7      29.93F
#CLE ELUM LAKE  N/A         79  40  25  W1      30.07F
#EASTON DOT     N/A         75  47  37  N2      N/A
#ELK HTS DOT    N/A         80  79  97  W6      N/A
#GLENWOOD       N/A         83  56  40  SE2     29.92F
#NELSON 3SW     N/A         78  37  23  CALM    30.12F
#NILE           N/A         86  33  15  CALM    29.19F
#TEANAWAY 4NE   N/A         84  41  22  W5      N/A
#TROUT LAKE 1NE N/A         79  54  42  E6      29.92F
#TROUT LAKE 1E  N/A         82  47  29  CALM    30.03F
$$

WAZ521-282110-
SIMCOE HIGHLANDS

CITY            SKY/WX      TMP DP  RH  WIND    PRES   REMARKS
#BICKLETON HS   N/A         82  43  25  S2      29.96F
#CENTERVILLE 1SWN/A         82  44  26  W8      29.88S
#GOLDENDALE 1NE N/A         82  24  12  SW3     N/A
#GOLDENDALE 4W  N/A         85  28  13  W6      30.02F
#GOODNOE HILLS  N/A         85  44  24  NW12    N/A
#LYLE 6NE       N/A         78  51  39  SW7     29.95F
#PITT 4SE       N/A         76  49  39  SW7     29.96F
$$

WAZ026-282110-
KITTITAS VALLEY

CITY            SKY/WX      TMP DP  RH  WIND    PRES   REMARKS
ELLENSBURG AP   SUNNY       88  39  18  E6      29.98F
#ELLENSBURG CWU N/A         86  36  17  N2      29.85F
#ELLENSBURG 3NE N/A         80  49  34  CALM    28.06F
#ELLENSBURG 1E  N/A         83  49  31  E1      29.93F
#KITTITAS 3S    N/A         79  54  42  CALM    29.89F
#MANASTASH RDG  N/A         81  81  100 N2      N/A
#ROCKY CYN DOT  N/A         89  53  29  NW8     N/A
#RYEGRASS DOT   N/A         79  45  30  S5      N/A
$$

WAZ027-282110-
YAKIMA VALLEY

CITY            SKY/WX      TMP DP  RH  WIND    PRES   REMARKS
SUNNYSIDE AP    N/A         81  42  25  CALM    29.96F
YAKIMA AIRPORT  SUNNY       89  32  13  VRB3    29.96F
YAKIMA-VAGABOND SUNNY       87  31  13  W8      29.95F
#DONALD 2NE     N/A         89  26  10  SW6     28.80F
#GRANDVIEW      N/A         82  39  22  W2      29.92F
#MABTON         N/A         82  47  29  CALM    29.94F
#MOXEE 2E       N/A         86  N/A N/A S3      29.86F
#NACHES 2SW     N/A         85  56  37  S1      30.03S
#OUTLOOK DOT    N/A         85  45  25  CALM    29.93F
#PARKER DOT     N/A         88  35  15  N2      29.95F
#TERRACE HTS    N/A         86  48  27  CALM    29.86F
#TOPPENISH      N/A         83  41  23  CALM    29.83F
#I82 S UMTANUM RN/A         85  47  27  SE3     N/A
#UNION GAP DOT  N/A         87  28  12  CALM    29.98F
#W YAKIMA       N/A         84  41  22  SE2     29.90F
#WHITE SWAN 5E  N/A         84  44  25  CALM    29.91F
#WILEY CITY 3W  N/A         85  34  16  CALM    29.94F
#ZILLAH DOT     N/A         85  37  18  S5      N/A
$$

WAZ028-282110-
LOWER COLUMBIA BASIN...WASHINGTON

CITY            SKY/WX      TMP DP  RH  WIND    PRES   REMARKS
HANFORD         MOSUNNY     89  34  14  E5      29.93F
PASCO           SUNNY       86  48  27  CALM    29.94F
PROSSER AWOS    N/A         86  37  18  CALM    29.97F
RICHLAND AWOS   SUNNY       88  49  26  NW3     29.93F
#BENTON CITY    N/A         89  52  28  CALM    29.81F
#CONNELL 5N     N/A         85  47  27  SW1     29.91F
#CONNELL 5NW    N/A         84  50  31  W5      29.86F
#ELTOPIA 6NW    N/A         82  54  38  CALM    28.93F
#KAHLOTUS       N/A         85  46  26  CALM    29.89F
#KENNEWICK 3S   N/A         84  56  38  CALM    29.91F
#PATERSON       N/A         83  50  32  SW2     29.90F
#PROSSER DOT    N/A         86  36  17  NW3     29.95F
#SAGEMOOR 2W    N/A         81  51  35  S1      29.78F
#TOUCHET 2S     N/A         90  49  25  N6      29.87F HX 87
#WEST PASCO     N/A         87  56  35  CALM    29.92F
$$

WAZ029-282110-
FOOTHILLS OF THE BLUES...WASHINGTON

CITY            SKY/WX      TMP DP  RH  WIND    PRES   REMARKS
WALLA WALLA AP  SUNNY       88  40  19  NW8     29.97F
#CLYDE 6NW      N/A         83  46  27  W6      29.88F
#DAYTON SCHOOL  N/A         85  39  20  NE2     29.98F
#LOWDEN 2SE     N/A         87  50  28  NW3     29.90F
#PLEASANT VIEW 1N/A         87  44  22  SW1     29.92F
#PRESCOTT       N/A         89  52  28  CALM    29.89F
#WHITMAN COLLEGEN/A         84  45  26  W3      29.94F
#WAITSBURG 5S   N/A         87  41  20  SW2     29.98F
#WAITSBURG 6SSE N/A         86  39  19  NW3     29.94F
#WALLA WALLA 5E N/A         88  49  26  SW3     N/A
#WALLA WALLA U  N/A         87  45  23  CALM    29.90F
#WHITMAN MISSIONN/A         85  45  25  CALM    29.91F
$$

WAZ030-282110-
BLUE MOUNTAINS...WASHINGTON

CITY            SKY/WX      TMP DP  RH  WIND    PRES   REMARKS
#DIXIE 5SE      N/A         78  44  30  NW6     29.99S
$$

ORZ009-041-WAZ024-282110-
COLUMBIA RIVER GORGE

CITY            SKY/WX      TMP DP  RH  WIND    PRES   REMARKS
HOOD RIVER AP   SUNNY       81  45  28  NW9     29.98F
THE DALLES AP   SUNNY       85  47  27  N18G26  29.94F
#ARLINGTON AIRPON/A         85  45  25  W7      29.91F
#CELILO DOT     N/A         89  55  32  W3      N/A
#LYLE           N/A         78  50  38  W18G26  29.95F
#MARYHILL       N/A         83  37  19  N17     N/A
#RUFUS DOT      N/A         84  N/A N/A W13     N/A
#SMITHVILLE     N/A         82  48  31  N15G25  29.94F

$$

ORZ510-282110-
NORTH CENTRAL OREGON

CITY            SKY/WX      TMP DP  RH  WIND    PRES   REMARKS
#ANTELOPE       N/A         82  47  29  CALM    29.74F
#CHENOWITH 1W   N/A         75  44  33  W25     N/A
#COW CYN RST AREN/A         82  38  21  SW3     N/A
#DUFUR          N/A         82  44  26  CALM    29.90F
#DUFUR 9E       N/A         76  38  25  NW13    29.98F
#GRASS VALLEY 1SN/A         81  33  18  NW3     30.05F
#KENT DOT       N/A         83  40  22  SW3     N/A
#MAUPIN SCHOOL  N/A         87  42  21  N2      30.00F
#MORO SCHOOL    N/A         80  40  24  W7      29.99F
#SHANIKO 5WSW   N/A         81  45  28  N1      N/A
#SHANIKO 4NW    N/A         77  33  20  N6      30.10S
#TYGH VALLEY 2NEN/A         85  43  23  N3      29.90F
#WAPANITIA AIRPON/A         84  39  20  E2      29.92F
#WASCO 5NE      N/A         85  38  19  W8      29.91F
$$

ORZ511-282110-
CENTRAL OREGON

CITY            SKY/WX      TMP DP  RH  WIND    PRES   REMARKS
BEND AIRPORT    SUNNY       84  45  26  VRB7    30.06F
MADRAS AIRPORT  SUNNY       82  36  19  N5      30.05F
PRINEVILLE AP   SUNNY       84  43  24  VRB5    30.05F
REDMOND AIRPORT SUNNY       84  40  21  N22     30.04F
#ASHWOOD SCHOOL N/A         82  42  24  N3      29.98F
#BEND 1SW       N/A         84  50  31  N1      N/A
#BEND-AWBREY    N/A         81  50  34  E5      29.86F
#BEND-KIM LN    N/A         82  51  34  N5      29.83F
#CULVER         N/A         81  48  32  N5      29.82F
#CULVER 8W      N/A         83  42  24  CALM    30.05F
#LAKE BILLY CHINN/A         83  N/A N/A NE5     29.95F
#MADRAS 4S      N/A         80  19  10  N7      N/A
#POWELL BUTTE   N/A         79  44  29  W8      30.02F
#PRINEVILLE     N/A         84  48  29  NW1     29.95F
#PRINEVILLE 3N  N/A         83  50  32  SW5     29.94F
#WARM SPRINGS   N/A         88  46  23  CALM    29.78F

$$


ORZ509-282110-
EAST SLOPES OF OREGON CASCADES

CITY            SKY/WX      TMP DP  RH  WIND    PRES   REMARKS
SISTERS AWOS    N/A         81  46  29  NE9     N/A
#BLUE BOX PASS  N/A         74  N/A N/A NW6     N/A
#CAMP SHERMAN   N/A         90  46  22  N1      29.93F HX 87
#LA PINE 4NW    N/A         81  51  35  W1      29.89F
#LAVA BUTTE DOT N/A         83  51  33  W1      N/A
#SISTERS ODOT   N/A         83  45  26  CALM    N/A
#SISTERS 3N     N/A         81  50  34  E6      29.95F
#SUNRIVER       N/A         85  48  28  S3      30.01F
#TUMALO 3W      N/A         80  48  33  NE2     29.75F
#WANOGA BUTTE D N/A         74  39  28  SE2     N/A

$$

ORZ044-282110-
LOWER COLUMBIA BASIN...OREGON

CITY            SKY/WX      TMP DP  RH  WIND    PRES   REMARKS
HERMISTON       SUNNY       87  43  22  VRB5    29.94F
#BOARDMAN SCHOOLN/A         83  51  33  W3      29.92F
#BOARDMAN 8SW   N/A         85  50  30  W5      29.91F
#ECHO 8SW       N/A         86  45  24  CALM    29.96F
#I-84 EX 198 DOTN/A         84  54  36  E9      N/A
#IONE SCHOOL    N/A         84  30  14  W9      29.92F
#UMATILLA       N/A         82  48  31  CALM    29.85F
$$

ORZ507-282110-
NORTHERN FOOTHILLS OF THE BLUES

CITY            SKY/WX      TMP DP  RH  WIND    PRES   REMARKS
PENDLETON AIRPT SUNNY       88  32  14  NW9     29.97F
#ADAMS 3WNW     N/A         86  41  21  CALM    29.89F
#ATHENA         N/A         84  42  23  CALM    29.93F
#CAYUSE         N/A         84  42  23  W6      29.89F
#HELIX SCHOOL   N/A         84  42  23  NW1     29.90F
#HELIX 3N       N/A         84  40  21  W5      29.97F
#HOLDMAN 6E     N/A         84  39  20  W5      29.72S
#M-F GROVE ELEM N/A         85  41  21  CALM    29.94F
#M-FREEWATER 5SEN/A         85  56  37  CALM    29.96F
#PENDLETON DNTN N/A         92  48  22  N3      29.95S HX 89
#PDT AQUATIC CTRN/A         84  43  24  W5      29.96S
#PDT SUNRIDGE   N/A         87  42  21  W6      29.98F
#PENDLETON 7NW  N/A         86  52  31  W1      29.99F
#PILOT ROCK 1S  N/A         85  44  24  N2      30.00F
#PILOT ROCK     N/A         86  41  21  CALM    30.00F
#TUTUILLA       N/A         85  45  25  NW2     30.01F
#UMAPINE 2E     N/A         88  51  28  NW2     29.91F
#WESTON SCHOOL  N/A         83  39  21  CALM    29.92F

$$

ORZ508-282110-
SOUTHERN FOOTHILLS OF THE BLUES

CITY            SKY/WX      TMP DP  RH  WIND    PRES   REMARKS
LEXINGTON       SUNNY       86  30  13  VRB7    30.02F
#AJAX           N/A         81  27  14  S10     30.16F
#CONDON 5W      N/A         79  34  20  CALM    30.05F
#FOSSIL SCHOOL  N/A         83  41  23  W2      29.97F
#HEPPNER EOC    N/A         82  38  21  W7      29.85S
#HEPPNER 4NE    N/A         79  36  21  NW5     29.90F
#LEXINGTON 2SE  N/A         87  37  17  N5      29.95F
#MIKKALO        N/A         83  29  14  NW7     30.11F
#OLEX 4N        N/A         84  34  17  W9      29.95F
#RUGGS 5NE      N/A         85  25  11  NW2     30.17F
#RUGGS 2SW      N/A         83  39  21  NE7     29.91F

$$

ORZ502-503-282110-
BLUE MOUNTAINS

CITY            SKY/WX      TMP DP  RH  WIND    PRES   REMARKS
MEACHAM         SUNNY       82  33  17  VRB5    30.08F
#BATTLE MTN DOT N/A         78  45  31  N6      N/A
#GRANITE        N/A         88  45  23  W7      29.71F
#HEPPNER 15SE   N/A         82  42  24  N1      29.93F
#LADD CYN SMT   N/A         87  52  30  SE12    N/A
#LADD CREEK ODOTN/A         86  55  35  NE3     N/A
#LONG CREEK HS  N/A         82  44  26  CALM    N/A
#N POWDER DOT   N/A         87  54  32  W3      N/A
#PIKES PEAK     N/A         76  45  33  N1      27.99S
#TOLLGATE       N/A         74  43  33  E2      30.00S
#TROY SCHOOL    N/A         94  55  27  CALM    29.66F HX 92
#UKIAH          N/A         83  44  25  NW6     29.80F
#WESTON 4E      N/A         81  45  28  NW1     29.85F
$$

ORZ505-282110-
JOHN DAY BASIN

CITY            SKY/WX      TMP DP  RH  WIND    PRES   REMARKS
JOHN DAY        SUNNY       89  46  23  CALM    30.03F
#JOHN DAY KJDY  N/A         89  N/A N/A W3      29.92F
#DAYVILLE SCHOOLN/A         89  44  21  E1      29.93F
#MITCHELL       N/A         86  53  32  CALM    30.19F
#MITCHELL 8NW   N/A         80  41  25  N1      29.91F
#MONUMENT HS    N/A         90  39  17  CALM    29.91F HX 86
#MT. VERNON 5SE N/A         83  46  27  CALM    30.00F
#SPRAY SCHOOL   N/A         90  N/A N/A CALM    N/A
$$

ORZ506-282110-
OCHOCO AND JOHN DAY HIGHLANDS

CITY            SKY/WX      TMP DP  RH  WIND    PRES   REMARKS
#HORSE RIDGE DO N/A         81  42  25  N8      N/A
#IZEE 6NW       N/A         91  45  20  S3      N/A    HX 87
#PAULINA ODOT   N/A         89  38  17  W2      N/A
#PINE MTN OBS   N/A         72  45  38  NW2     N/A
#PRAIRIE CITY   N/A         85  52  32  CALM    30.16F
#SENECA         N/A         85  N/A N/A S3      N/A
#SENECA 9NW     N/A         87  49  27  CALM    29.81F
$$

ORZ049-282110-
GRANDE RONDE VALLEY

CITY            SKY/WX      TMP DP  RH  WIND    PRES   REMARKS
LA GRANDE       SUNNY       88  46  23  CALM    29.99F
#COVE           N/A         88  55  33  CALM    30.03F
#COVE SCHOOL    N/A         90  52  27  CALM    30.02F HX 87
#COVE 6NW       N/A         86  50  29  CALM    29.85F
#ELGIN 3N       N/A         88  41  19  S6      29.96F
#ELGIN 1E       N/A         89  49  25  CALM    N/A
#IMBLER SCHOOL  N/A         84  46  27  CALM    29.96F
#ISLAND CITY 4N N/A         74  58  57  W2      30.07F
#LA GRANDE-LEFFEN/A         92  48  22  SW1     30.00F HX 89
#UNION 1S       N/A         86  53  32  SW1     29.83F
$$

ORZ050-282110-
WALLOWA COUNTY

CITY            SKY/WX      TMP DP  RH  WIND    PRES   REMARKS
JOSEPH AIRPORT  SUNNY       84  41  22  NW7     30.09S
#ENTERPRISE HS  N/A         86  51  30  NW6     29.73F
#IMNAHA SCHOOL  N/A         97  49  20  N5      29.90F HX 94
#IMNAHA 10S     N/A         78  57  48  S7      29.98R
#JOSEPH         N/A         82  42  24  NW10    30.01F
#JOSEPH 3N      N/A         84  47  28  NW9     30.09S
#JOSEPH 3W      N/A         81  53  38  E1      29.95F
#LOSTINE        N/A         88  50  27  N2      29.66F
#LOSTINE 3SE    N/A         85  49  29  NE5     30.08F
#MT HOWARD 8000 N/A         68  36  31  SW8     30.40R
#PROMISE 1S     N/A         84  51  32  NW2     29.92R
#WALLOWA LAKE   N/A         86  51  30  NW2     30.12F
#WALLOWA SCHOOL N/A         88  49  26  W1      29.97F



$$



USA.gov is the U.S. government's official web portal to all federal, state and local government web resources and services.